Погода в Славгороде

Погода в Славгороде : погода сейчас, прогноз погоды и архив. Всё, что Вы хотите узнать о погоде в Славгороде!

Хотите узнать прогноз погоды в Славгороде? Тогда Вам сюда: Погода в Славгороде

Поиск расширенной информации на нашем сайте:

Полезная информация: Лучшие всесезонные легковые шины покупайте только у надежного производителя Goodyear

Другие новости

Новости СМИ2

Главная страница сайта

Новости сайта

02.10.2013

Напоминаем, что на нашем новом сайте вы можете получить высокодетализированные прогнозы погоды по пунктам России, СНГ и мира (включающие важные для авиации метеовеличины, такие как направление и скорость ветра, видимость, явления погоды, количество и форма облачности, нижняя и верхняя граница облачности), а также ознакомиться с разнообразными материалами по авиационной метеорологии и подборкой полезных ссылок на эту тему.

Сайт Метеоцентр.Азия посвящён разработке технологий оптимизации авиаметеорологического обслуживания, включая проектирование и перспективное создание нескольких автоматизированных авиаметеорологических систем:
- система выпуска высокодетальных прогностических карт явлений погоды для нижнего воздушного пространства по России и ближнему зарубежью;
- система верификации прогнозов TAF (выпускаемых синоптиками официальных АМСГ РФ и ближнего зарубежья) и AUTOTAF (выпускаемых сайтом Метеоцентр.Азия) - выявление ошибок, онлайн-сопоставление с фактической погодой METAR, автоматическое внесение коррективов в прогнозы при резком отклонении фактической погоды от прогноза, подсчёт оправдываемости прогнозов по элементам и в целом;
- система обработки, анализа и отображения авиаметеорологической информации для применения провайдерами метеорологической информации.

Рекомендуем: Блок излучения купить аппарат лазерной терапии УзорМед.

Погода в Славгороде - сегодня

Время (UTC), дата Ветер
(°,м/с) 
Видим.   Явления Облачность Т
(°С)
Тd
(°С)
f(%) Тe
(°С)
Pmin
(гПа)
dP
(гПа)
Po
(мм)
O2
(г/м3)
Тmin Tmax R s Состояние
почвы
21 23.05.17 250 (З) 5{15}  20000 м    ясно 
+17.5 +9.7 60 +19  1005.3  1.4  743  280           
00 24.05.17 250 (З) 4{10}  20000 м    9/0 верхняя 
[Ci fib]
+16.7 +10.2 65 +19  1007.4  2.1  745  281  +16.5        сухая 
03 24.05.17 240 (ЮЗ) 5-10{11}  20000 м    3/3 600 м 
[Cu hum]
+20.4 +10.3 52 +22  1008.8  1.5  746  278           
06 24.05.17 260 (З) 7-12{13}  20000 м    6/4 600 м верхняя 
[Cu hum|Ci sp]
+23 +7 36 +23  1008.6  -0.1  746  276           
09 24.05.17 240 (ЮЗ) 5{12}  20000 м    9/6 800 м верхняя 
[Cu med, cong|Ci sp]
+23.8 +6.3 32 +24  1007.2  -1.3  745  275           
12 24.05.17 240 (ЮЗ) 5{16}  20000 м  в посл. час ливневой дождь{гроза}  10/6 600 м кучево-дожд., средняя 
[Cb cap|Ac trans]
+18.3 +13.7 75 +25  1007.2  -0.2  744  278    +24.8     
15 24.05.17 260 (З) 4{15}  20000 м    8/3 600 м кучево-дожд., верхняя 
[Cb cap|Ci sp]
+14.7 +8.4 66 +15  1009.4  1.9  746  284           
18 24.05.17 300 (СЗ) 20000 м    ясно 
+9.9 +6.4 79 +9  1012.8  3.1  748  290           
21 24.05.17 280 (З) 20000 м    ясно 
+6.3 +3.8 84 +5  1014.8  1.7  749  295           
00 25.05.17 280 (З) 20000 м    ясно 
+6.7 +3.6 81 +6  1016.3  1.5  751  295  +5.2        влажная 
03 25.05.17 270 (З) 20000 м    1/1 1000 м 
[Cu med, cong]
+12.6 +3.2 53 +12  1017.2  1.3  752  289           
06 25.05.17 280 (З) 6-13{13}  20000 м    6/6 960 м 
[Cu med, cong]
+15.7 -1.2 31 +15  1017.2  0.2  752  287           
09 25.05.17 280 (З) 5{13}  20000 м    4/4 600 м 
[Cu med, cong]
+17.4 -0.7 29 +17  1016.3  -0.9  751  285           
12 25.05.17 270 (З) 5-10{12}  20000 м    ясно 
+18.5 -2.1 25 +19  1015.5  -0.7  751  283    +18.6       
15 25.05.17 230 (ЮЗ) 2{10}  20000 м    ясно 
+13.5 -0.5 38 +14  1015.2  -0.6  750  288           
18 25.05.17 240 (ЮЗ) 20000 м    8/8 800 м 
[Sc]
+13.2 +1.2 44 +13  1015.2  750  288           
21 25.05.17 340 (С) 20000 м    3/3 600 м 
[Sc]
+10 +1 54 +10  1017.3  752  292           
00 26.05.17 350 (С) 20000 м    ясно 
+7.1 +1.4 67 +6  1021.1  3.5  754  296  +5.6        сухая 
03 26.05.17 350 (С) 20000 м    ясно 
+11.2 -5.7 30 +10  1023.2  2.3  756  293           
06 26.05.17 320 (СЗ) 20000 м    ясно 
+14 -6.3 24 +13  1024.5  1.4  757  291           
09 26.05.17 330 (СЗ) 4{11}  20000 м    ясно 
+16.4 -6.9 20 +16  1024.5  0.1  757  288           
12 26.05.17 320 (СЗ) 20000 м    ясно 
+16.6 -6.2 20 +17  1024.6  0.2  757  288    +16.8       
15 26.05.17 010 (С) 20000 м    ясно 
+11.8 -2.7 36 +13  1025.5  0.6  758  293           
18 26.05.17 090 (В) 20000 м    ясно 
+8.4 -4.6 39 +8  1026.3  0.6  758  297           
21 26.05.17 100 (В) 20000 м    ясно 
+6.8 -3.4 48 +7  1026.1  -0.3  758  298           
Время (UTC), дата Ветер
(°,м/с) 
Видим.   Явления Облачность Т
(°С)
Тd
(°С)
f(%) Тe
(°С)
Pmin
(гПа)
dP
(гПа)
Po
(мм)
O2
(г/м3)
Тmin Tmax R s Состояние
почвы

Для получения пояснительной информации подведите курсор к названию столбца.

ПОГОДА в Славгороде - архив

Всё, что Вы хотите узнать о погоде в Славгороде - удобно и подробно!

Выберите нужную дату (начиная с 1 января 2015* года) и нажмите кнопку "Найти".
Будут отображены архивные сводки погоды по пункту Славгород, начиная с указанной даты.


Отображать данные в формате CSV (для использования в таблицах Excel)


Внимание! Наш архив погоды предназначен исключительно для личного некоммерческого использования в познавательных целях. Если Вам необходимы официальные справки о состоянии погоды (для производственных, юридических, коммерческих и т.п. целей), обращайтесь в органы Росгидромета.

*Примечание: данная дата относится к архиву по метеостанциям СССР (Россия, СНГ, Балтия).
Архив по метеостанциям Зарубежной Европы и Азии (кроме Китая) хранится 10 дней, по другим регионам земного шара (Китай, Африка, Америка, Австралия, Океания) - 1 день.

Славгород - район местоположения метеостанции


Название, широта, долгота, высота метеостанции:
Славгород 53°ш. 78.6°д. 126 м над ур. моря [Российская Федерация]

Дополнительная информация

В oтличие oт бoльшинства пoгoдных сайтoв мы публикуем пoдрoбную метеoинфoрмацию в детальнoм прoфессиoнальнoм фoрмате.

Характеристики температуры и влажнoсти вoздуха измеряются на высoте 2 м в тени вдали oт зданий и деревьев.
Скoрoсть ветра измеряется на высoте 10 м (на урoвне рoста челoвека скoрoсть ветра ниже в 1.5-2 раза). Если метеoстанция нахoдится в гoрoде или в лесу, тo скoрoсть ветра занижена на 2-4 м/с пo сравнению с oткрытым местoм. Скoрoсть ветра над акватoриями крупных рек и oзёр, а также на вершинах хoлмoв на 2-5 м/с выше, чем в oбычных услoвиях.
Атмoсфернoе давление в разных тoчках местнoсти мoжет значительнo oтличаться oт давления на метеoстанции, в зависимoсти oт услoвий рельефа (при пoдъёме на 10 м давление пoнижается примернo на 1 мм рт.ст.).